Location: ??????
(55.2000°N, 38.3000°E)
Time: 17:37:22
(UTC+00:00)

Meteor 2-21 - Pass Details

Date: 15 November 2025
Orbit: 933 x 966 km, 82.5° (Epoch: 14 December)

Event Time Altitude Azimuth Distance (km) Brightness Sun altitude
Exits shadow 01:50:58 69° 278° (W) 1,001 4.3 -26.5°
Maximum altitude 01:51:04 70° 285° (WNW) 1,001 4.3 -26.5°
Drops below altitude 10° 01:57:08 10° 9° (N) 2,658 6.9 -25.7°
Sets 01:59:38 0° 12° (NNE) 3,605 7.7 -25.3°
